FGN-100-D2

导读

FGN-100-D2是土耳其费尔加尼公司研发的第二颗国产私营卫星,于2025年11月2日计划发射,11月3日从美国卡纳维拉尔角成功入轨,重量104公斤,是土耳其目前最大的私营部门卫星,进入510公里近地轨道后传回首组遥测数据。卫星搭载了国产航空电子系统,将用于核心技术在轨验证,推进土耳其民营航天技术发展。

基本信息
目录编号:
66299
目录名称:
FGN-100-D2
国际标识:
2025-248G
轨道中心:
EARTH
卫星名称:
FGN-100-D2
卫星全名:
FGN-100-D2
卫星状态:
在轨 (已飞行307 天)
发射日期:
2025-11-02 UTC
国别 :
土耳其 (TR)
星等 :
--
轨道信息
数据来源 国际轨道数据
星历时间: 2026-09-05T19:50:42+0800
5小时前
查看轨道信息
半长轴: 6880.843km
偏心率: 0.000397
轨道倾角: 45.401°
近地点辐角 156.189°
升交点赤经 50.331°
平近点角 203.918°
近地点: 499.974km
远地点: 505.438km
周期: 94.672分钟
每日圈数: 15.21039
详细信息
使用方式:
暂无
2D轨道图
3D轨道图
轨道高度分析图
轨道倾角分析图
轨道综合分析图
查看轨道综合分析图